Year,Month,Day,Hour,Minute,Value (Times are PST for temperature in C)
2018,01,27,00,00,5.20
2018,01,27,00,01,5.20
2018,01,27,00,02,5.20
2018,01,27,00,03,5.20
2018,01,27,00,04,5.20
2018,01,27,00,05,5.20
2018,01,27,00,06,5.20
2018,01,27,00,07,5.20
2018,01,27,00,08,5.20
2018,01,27,00,09,5.20
2018,01,27,00,10,5.20
2018,01,27,00,11,5.20
2018,01,27,00,12,5.20
2018,01,27,00,13,5.20
2018,01,27,00,14,5.20
2018,01,27,00,15,5.20
2018,01,27,00,16,5.20
2018,01,27,00,17,5.20
2018,01,27,00,18,5.20
2018,01,27,00,19,5.20
2018,01,27,00,20,5.20
2018,01,27,00,21,5.20
2018,01,27,00,22,5.20
2018,01,27,00,23,5.20
2018,01,27,00,24,5.20
2018,01,27,00,25,5.20
2018,01,27,00,26,5.20
2018,01,27,00,27,5.20
2018,01,27,00,28,5.20
2018,01,27,00,29,5.20
2018,01,27,00,30,5.20
2018,01,27,00,31,5.20
2018,01,27,00,32,5.20
2018,01,27,00,33,5.20
2018,01,27,00,34,5.20
2018,01,27,00,35,5.20
2018,01,27,00,36,5.20
2018,01,27,00,37,5.20
2018,01,27,00,38,5.20
2018,01,27,00,39,5.20
2018,01,27,00,40,5.20
2018,01,27,00,41,5.20
2018,01,27,00,42,5.20
2018,01,27,00,43,5.20
2018,01,27,00,44,5.20
2018,01,27,00,45,5.20
2018,01,27,00,46,5.20
2018,01,27,00,47,5.20
2018,01,27,00,48,5.20
2018,01,27,00,49,5.20
2018,01,27,00,50,5.20
2018,01,27,00,51,5.20
2018,01,27,00,52,5.20
2018,01,27,00,53,5.20
2018,01,27,00,54,5.20
2018,01,27,00,55,5.20
2018,01,27,00,56,5.20
2018,01,27,00,57,5.20
2018,01,27,00,58,5.20
2018,01,27,00,59,5.20
2018,01,27,01,00,5.20
2018,01,27,01,01,5.20
2018,01,27,01,02,5.20
2018,01,27,01,03,5.20
2018,01,27,01,04,5.20
2018,01,27,01,05,5.20
2018,01,27,01,06,5.20
2018,01,27,01,07,5.20
2018,01,27,01,08,5.20
2018,01,27,01,09,5.20
2018,01,27,01,10,5.20
2018,01,27,01,11,5.30
2018,01,27,01,12,5.30
2018,01,27,01,13,5.30
2018,01,27,01,14,5.30
2018,01,27,01,15,5.30
2018,01,27,01,16,5.30
2018,01,27,01,17,5.30
2018,01,27,01,18,5.30
2018,01,27,01,19,5.30
2018,01,27,01,20,5.30
2018,01,27,01,21,5.30
2018,01,27,01,22,5.30
2018,01,27,01,23,5.30
2018,01,27,01,24,5.30
2018,01,27,01,25,5.30
2018,01,27,01,26,5.30
2018,01,27,01,27,5.30
2018,01,27,01,28,5.30
2018,01,27,01,29,5.30
2018,01,27,01,30,5.30
2018,01,27,01,31,5.30
2018,01,27,01,32,5.30
2018,01,27,01,33,5.40
2018,01,27,01,34,5.30
2018,01,27,01,35,5.40
2018,01,27,01,36,5.40
2018,01,27,01,37,5.40
2018,01,27,01,38,5.40
2018,01,27,01,39,5.40
2018,01,27,01,40,5.40
2018,01,27,01,41,5.40
2018,01,27,01,42,5.40
2018,01,27,01,43,5.40
2018,01,27,01,44,5.40
2018,01,27,01,45,5.40
2018,01,27,01,46,5.40
2018,01,27,01,47,5.40
2018,01,27,01,48,5.40
2018,01,27,01,49,5.40
2018,01,27,01,50,5.40
2018,01,27,01,51,5.30
2018,01,27,01,52,5.30
2018,01,27,01,53,5.30
2018,01,27,01,54,5.30
2018,01,27,01,55,5.30
2018,01,27,01,56,5.30
2018,01,27,01,57,5.20
2018,01,27,01,58,5.20
2018,01,27,01,59,5.20
2018,01,27,02,00,5.20
2018,01,27,02,01,5.20
2018,01,27,02,02,5.20
2018,01,27,02,03,5.20
2018,01,27,02,04,5.10
2018,01,27,02,05,5.10
2018,01,27,02,06,5.10
2018,01,27,02,07,5.10
2018,01,27,02,08,5.10
2018,01,27,02,09,5.10
2018,01,27,02,10,5.10
2018,01,27,02,11,5.10
2018,01,27,02,12,5.10
2018,01,27,02,13,5.10
2018,01,27,02,14,5.00
2018,01,27,02,15,5.00
2018,01,27,02,16,5.00
2018,01,27,02,17,5.00
2018,01,27,02,18,5.00
2018,01,27,02,19,5.00
2018,01,27,02,20,5.00
2018,01,27,02,21,5.00
2018,01,27,02,22,5.00
2018,01,27,02,23,5.00
2018,01,27,02,24,5.00
2018,01,27,02,25,5.00
2018,01,27,02,26,5.00
2018,01,27,02,27,5.00
2018,01,27,02,28,5.00
2018,01,27,02,29,5.00
2018,01,27,02,30,5.00
2018,01,27,02,31,4.90
2018,01,27,02,32,4.90
2018,01,27,02,33,4.90
2018,01,27,02,34,4.90
2018,01,27,02,35,4.90
2018,01,27,02,36,4.90
2018,01,27,02,37,4.90
2018,01,27,02,38,4.90
2018,01,27,02,39,4.90
2018,01,27,02,40,4.90
2018,01,27,02,41,4.90
2018,01,27,02,42,4.90
2018,01,27,02,43,4.90
2018,01,27,02,44,4.90
2018,01,27,02,45,4.90
2018,01,27,02,46,4.90
2018,01,27,02,47,4.90
2018,01,27,02,48,4.90
2018,01,27,02,49,4.90
2018,01,27,02,50,4.90
2018,01,27,02,51,4.90
2018,01,27,02,52,4.90
2018,01,27,02,53,4.90
2018,01,27,02,54,4.90
2018,01,27,02,55,4.90
2018,01,27,02,56,4.80
2018,01,27,02,57,4.90
2018,01,27,02,58,4.90
2018,01,27,02,59,4.80
2018,01,27,03,00,4.80
2018,01,27,03,01,4.80
2018,01,27,03,02,4.80
2018,01,27,03,03,4.80
2018,01,27,03,04,4.80
2018,01,27,03,05,4.80
2018,01,27,03,06,4.80
2018,01,27,03,07,4.80
2018,01,27,03,08,4.80
2018,01,27,03,09,4.80
2018,01,27,03,10,4.90
2018,01,27,03,11,4.90
2018,01,27,03,12,4.90
2018,01,27,03,13,4.90
2018,01,27,03,14,4.80
2018,01,27,03,15,4.90
2018,01,27,03,16,4.90
2018,01,27,03,17,4.90
2018,01,27,03,18,4.90
2018,01,27,03,19,4.90
2018,01,27,03,20,4.90
2018,01,27,03,21,4.90
2018,01,27,03,22,4.90
2018,01,27,03,23,4.90
2018,01,27,03,24,4.90
2018,01,27,03,25,5.00
2018,01,27,03,26,5.00
2018,01,27,03,27,5.00
2018,01,27,03,28,5.00
2018,01,27,03,29,5.00
2018,01,27,03,30,5.00
2018,01,27,03,31,5.10
2018,01,27,03,32,5.10
2018,01,27,03,33,5.10
2018,01,27,03,34,5.10
2018,01,27,03,35,5.10
2018,01,27,03,36,5.10
2018,01,27,03,37,5.20
2018,01,27,03,38,5.20
2018,01,27,03,39,5.20
2018,01,27,03,40,5.20
2018,01,27,03,41,5.20
2018,01,27,03,42,5.20
2018,01,27,03,43,5.20
2018,01,27,03,44,5.20
2018,01,27,03,45,5.20
2018,01,27,03,46,5.20
2018,01,27,03,47,5.20
2018,01,27,03,48,5.20
2018,01,27,03,49,5.20
2018,01,27,03,50,5.20
2018,01,27,03,51,5.20
2018,01,27,03,52,5.20
2018,01,27,03,53,5.30
2018,01,27,03,54,5.30
2018,01,27,03,55,5.30
2018,01,27,03,56,5.30
2018,01,27,03,57,5.30
2018,01,27,03,58,5.30
2018,01,27,03,59,5.30
2018,01,27,04,00,5.30
2018,01,27,04,01,5.40
2018,01,27,04,02,5.40
2018,01,27,04,03,5.40
2018,01,27,04,04,5.40
2018,01,27,04,08,5.40
2018,01,27,04,09,5.40
2018,01,27,04,10,5.40
2018,01,27,04,11,5.50
2018,01,27,04,12,5.50
2018,01,27,04,13,5.50
2018,01,27,04,14,5.50
2018,01,27,04,15,5.50
2018,01,27,04,16,5.60
2018,01,27,04,17,5.60
2018,01,27,04,18,5.60
2018,01,27,04,19,5.60
2018,01,27,04,20,5.60
2018,01,27,04,21,5.60
2018,01,27,04,22,5.60
2018,01,27,04,23,5.60
2018,01,27,04,24,5.60
2018,01,27,04,25,5.60
2018,01,27,04,26,5.60
2018,01,27,04,27,5.60
2018,01,27,04,28,5.60
2018,01,27,04,29,5.60
2018,01,27,04,30,5.60
2018,01,27,04,31,5.60
2018,01,27,04,32,5.60
2018,01,27,04,33,5.60
2018,01,27,04,34,5.60
2018,01,27,04,35,5.70
2018,01,27,04,36,5.70
2018,01,27,04,37,5.70
2018,01,27,04,38,5.70
2018,01,27,04,39,5.70
2018,01,27,04,40,5.70
2018,01,27,04,41,5.70
2018,01,27,04,42,5.70
2018,01,27,04,43,5.70
2018,01,27,04,44,5.70
2018,01,27,04,45,5.70
2018,01,27,04,46,5.70
2018,01,27,04,47,5.70
2018,01,27,04,48,5.70
2018,01,27,04,49,5.70
2018,01,27,04,50,5.70
2018,01,27,04,51,5.70
2018,01,27,04,52,5.70
2018,01,27,04,53,5.70
2018,01,27,04,54,5.70
2018,01,27,04,55,5.70
2018,01,27,04,56,5.70
2018,01,27,04,57,5.70
2018,01,27,04,58,5.70
2018,01,27,04,59,5.70
2018,01,27,05,00,5.70
2018,01,27,05,01,5.70
2018,01,27,05,02,5.70
2018,01,27,05,03,5.70
2018,01,27,05,04,5.70
2018,01,27,05,05,5.70
2018,01,27,05,06,5.70
2018,01,27,05,07,5.70
2018,01,27,05,08,5.70
2018,01,27,05,09,5.70
2018,01,27,05,10,5.70
2018,01,27,05,11,5.70
2018,01,27,05,12,5.60
2018,01,27,05,13,5.60
2018,01,27,05,14,5.60
2018,01,27,05,15,5.60
2018,01,27,05,16,5.60
2018,01,27,08,14,6.20
2018,01,27,08,15,6.20
2018,01,27,08,16,6.20
2018,01,27,08,17,6.20
2018,01,27,08,18,6.20
2018,01,27,08,19,6.20
2018,01,27,08,20,6.20
2018,01,27,08,21,6.10
2018,01,27,08,22,6.10
2018,01,27,08,23,6.10
2018,01,27,08,24,6.10
2018,01,27,08,25,6.10
2018,01,27,08,26,6.10
2018,01,27,08,27,6.10
2018,01,27,08,28,6.10
2018,01,27,08,29,6.10
2018,01,27,08,30,6.10
2018,01,27,08,31,6.10
2018,01,27,08,32,6.10
2018,01,27,08,33,6.10
2018,01,27,08,34,6.10
2018,01,27,08,35,6.10
2018,01,27,08,36,6.10
2018,01,27,08,37,6.20
2018,01,27,09,02,6.10
2018,01,27,09,03,6.10
2018,01,27,09,04,6.10
2018,01,27,09,05,6.10
2018,01,27,09,06,6.10
2018,01,27,09,07,6.10
2018,01,27,09,08,6.10
2018,01,27,09,09,6.10
2018,01,27,09,10,6.10
2018,01,27,09,11,6.10
2018,01,27,09,12,6.10
2018,01,27,09,13,6.10
2018,01,27,09,14,6.10
2018,01,27,09,15,6.10
2018,01,27,09,16,6.10
2018,01,27,09,17,6.10
2018,01,27,09,18,6.10
2018,01,27,09,19,6.10
2018,01,27,09,20,6.10
2018,01,27,09,21,6.10
2018,01,27,09,22,6.10
2018,01,27,09,23,6.10
2018,01,27,09,24,6.10
2018,01,27,09,25,6.10
2018,01,27,09,26,6.10
2018,01,27,09,27,6.10
2018,01,27,09,28,6.10
2018,01,27,09,29,6.10
2018,01,27,09,30,6.10
2018,01,27,09,31,6.10
2018,01,27,09,32,6.10
2018,01,27,09,33,6.10
2018,01,27,09,34,6.20
2018,01,27,09,35,6.20
2018,01,27,09,36,6.20
2018,01,27,09,37,6.10
2018,01,27,09,38,6.10
2018,01,27,09,39,6.10
2018,01,27,09,40,6.10
2018,01,27,09,41,6.10
2018,01,27,09,42,6.10
2018,01,27,09,43,6.10
2018,01,27,09,44,6.10
2018,01,27,09,45,6.10
2018,01,27,09,46,6.10
2018,01,27,09,47,6.00
2018,01,27,09,48,6.00
2018,01,27,09,49,6.00
2018,01,27,09,50,6.00
2018,01,27,09,51,6.00
2018,01,27,09,52,6.00
2018,01,27,09,53,6.00
2018,01,27,09,54,6.10
2018,01,27,09,55,6.10
2018,01,27,09,56,6.10
2018,01,27,09,57,6.10
2018,01,27,09,58,6.10
2018,01,27,09,59,6.10
2018,01,27,10,00,6.10
2018,01,27,10,01,6.10
2018,01,27,10,02,6.10
2018,01,27,10,03,6.10
2018,01,27,10,04,6.10
2018,01,27,10,05,6.10
2018,01,27,10,06,6.10
2018,01,27,10,07,6.20
2018,01,27,10,08,6.20
2018,01,27,10,09,6.20
2018,01,27,10,10,6.20
2018,01,27,10,11,6.20
2018,01,27,10,12,6.20
2018,01,27,10,13,6.20
2018,01,27,10,14,6.20
2018,01,27,10,15,6.20
2018,01,27,10,16,6.20
2018,01,27,10,17,6.20
2018,01,27,10,18,6.20
2018,01,27,10,19,6.20
2018,01,27,10,20,6.20
2018,01,27,10,21,6.20
2018,01,27,10,22,6.20
2018,01,27,10,23,6.20
2018,01,27,10,24,6.20
2018,01,27,10,25,6.20
2018,01,27,10,26,6.20
2018,01,27,10,27,6.30
2018,01,27,10,28,6.30
2018,01,27,10,29,6.30
2018,01,27,10,30,6.30
2018,01,27,10,31,6.30
2018,01,27,10,32,6.30
2018,01,27,10,33,6.30
2018,01,27,10,34,6.30
2018,01,27,10,35,6.30
2018,01,27,10,36,6.30
2018,01,27,10,37,6.30
2018,01,27,10,38,6.30
2018,01,27,10,39,6.40
2018,01,27,10,40,6.40
2018,01,27,10,41,6.40
2018,01,27,10,42,6.40
2018,01,27,10,43,6.40
2018,01,27,10,44,6.40
2018,01,27,10,45,6.50
2018,01,27,10,46,6.50
2018,01,27,10,47,6.50
2018,01,27,10,48,6.60
2018,01,27,10,49,6.60
2018,01,27,10,50,6.60
2018,01,27,10,51,6.60
2018,01,27,10,52,6.60
2018,01,27,10,53,6.60
2018,01,27,10,54,6.60
2018,01,27,10,55,6.60
2018,01,27,10,56,6.60
2018,01,27,10,57,6.60
2018,01,27,10,58,6.60
2018,01,27,10,59,6.60
2018,01,27,11,00,6.70
2018,01,27,11,01,6.70
2018,01,27,11,02,6.70
2018,01,27,11,03,6.70
2018,01,27,11,04,6.70
2018,01,27,11,05,6.70
2018,01,27,11,06,6.70
2018,01,27,11,07,6.80
2018,01,27,11,08,6.80
2018,01,27,11,09,6.80
2018,01,27,11,10,6.90
2018,01,27,11,11,6.90
2018,01,27,11,12,7.00
2018,01,27,11,13,7.00
2018,01,27,11,14,7.10
2018,01,27,11,15,7.10
2018,01,27,11,16,7.10
2018,01,27,11,17,7.10
2018,01,27,11,18,7.20
2018,01,27,11,19,7.20
2018,01,27,11,20,7.20
2018,01,27,11,21,7.20
2018,01,27,11,22,7.20
2018,01,27,11,23,7.20
2018,01,27,11,24,7.30
2018,01,27,11,25,7.30
2018,01,27,11,26,7.30
2018,01,27,11,27,7.30
2018,01,27,11,28,7.30
2018,01,27,11,29,7.30
2018,01,27,11,30,7.40
2018,01,27,11,31,7.40
2018,01,27,11,32,7.40
2018,01,27,11,33,7.40
2018,01,27,11,34,7.40
2018,01,27,11,35,7.40
2018,01,27,11,36,7.40
2018,01,27,11,37,7.40
2018,01,27,11,38,7.30
2018,01,27,11,39,7.30
2018,01,27,11,40,7.40
2018,01,27,11,41,7.40
2018,01,27,11,42,7.40
2018,01,27,11,43,7.40
2018,01,27,11,44,7.40
2018,01,27,11,45,7.50
2018,01,27,11,46,7.50
2018,01,27,11,47,7.60
2018,01,27,11,48,7.60
2018,01,27,11,49,7.60
2018,01,27,11,50,7.50
2018,01,27,11,51,7.30
2018,01,27,11,52,7.10
2018,01,27,11,53,6.90
2018,01,27,11,54,6.70
2018,01,27,11,55,6.60
2018,01,27,11,56,6.50
2018,01,27,11,57,6.50
2018,01,27,11,58,6.40
2018,01,27,11,59,6.40
2018,01,27,12,00,6.30
2018,01,27,12,01,6.20
2018,01,27,12,02,6.10
2018,01,27,12,03,6.00
2018,01,27,12,04,5.90
2018,01,27,12,05,5.80
2018,01,27,12,06,5.80
2018,01,27,12,07,5.80
2018,01,27,12,08,5.70
2018,01,27,12,09,5.60
2018,01,27,12,10,5.60
2018,01,27,12,11,5.50
2018,01,27,12,12,5.50
2018,01,27,12,13,5.50
2018,01,27,12,14,5.50
2018,01,27,12,15,5.50
2018,01,27,12,16,5.40
2018,01,27,12,17,5.50
2018,01,27,12,18,5.40
2018,01,27,12,19,5.40
2018,01,27,12,20,5.40
2018,01,27,12,21,5.40
2018,01,27,12,22,5.40
2018,01,27,12,23,5.40
2018,01,27,12,24,5.40
2018,01,27,12,25,5.40
2018,01,27,12,26,5.40
2018,01,27,12,27,5.40
2018,01,27,12,28,5.40
2018,01,27,12,29,5.30
2018,01,27,12,30,5.30
2018,01,27,12,31,5.30
2018,01,27,12,32,5.30
2018,01,27,12,33,5.20
2018,01,27,12,34,5.20
2018,01,27,12,35,5.20
2018,01,27,12,36,5.20
2018,01,27,12,37,5.20
2018,01,27,12,38,5.20
2018,01,27,12,39,5.20
2018,01,27,12,40,5.20
2018,01,27,12,41,5.20
2018,01,27,12,42,5.20
2018,01,27,12,43,5.20
2018,01,27,12,44,5.20
2018,01,27,12,45,5.20
2018,01,27,12,46,5.20
2018,01,27,12,47,5.20
2018,01,27,12,48,5.20
2018,01,27,12,49,5.20
2018,01,27,12,50,5.20
2018,01,27,12,51,5.20
2018,01,27,12,52,5.20
2018,01,27,12,53,5.20
2018,01,27,12,54,5.20
2018,01,27,12,55,5.20
2018,01,27,12,56,5.30
2018,01,27,12,57,5.30
2018,01,27,12,58,5.40
2018,01,27,12,59,5.50
2018,01,27,13,00,5.50
2018,01,27,13,01,5.70
2018,01,27,13,02,5.70
2018,01,27,13,03,5.80
2018,01,27,13,04,6.00
2018,01,27,13,05,6.10
2018,01,27,13,06,6.20
2018,01,27,13,07,6.30
2018,01,27,13,08,6.40
2018,01,27,13,09,6.50
2018,01,27,13,10,6.60
2018,01,27,13,11,6.70
2018,01,27,13,12,6.80
2018,01,27,13,13,6.80
2018,01,27,13,14,6.90
2018,01,27,13,15,7.00
2018,01,27,13,16,7.00
2018,01,27,13,17,7.10
2018,01,27,13,18,7.10
2018,01,27,13,19,7.20
2018,01,27,13,20,7.20
2018,01,27,13,21,7.20
2018,01,27,13,22,7.30
2018,01,27,13,23,7.30
2018,01,27,13,24,7.40
2018,01,27,13,25,7.40
2018,01,27,13,26,7.40
2018,01,27,13,27,7.40
2018,01,27,13,28,7.40
2018,01,27,13,29,7.40
2018,01,27,13,30,7.40
2018,01,27,13,31,7.40
2018,01,27,13,32,7.40
2018,01,27,13,33,7.40
2018,01,27,13,34,7.50
2018,01,27,13,35,7.50
2018,01,27,13,36,7.50
2018,01,27,13,37,7.60
2018,01,27,13,38,7.60
2018,01,27,13,39,7.60
2018,01,27,13,40,7.60
2018,01,27,13,41,7.60
2018,01,27,13,42,7.70
2018,01,27,13,43,7.70
2018,01,27,13,44,7.70
2018,01,27,13,45,7.70
2018,01,27,13,46,7.70
2018,01,27,13,47,7.70
2018,01,27,13,48,7.70
2018,01,27,13,49,7.70
2018,01,27,13,50,7.70
2018,01,27,13,51,7.70
2018,01,27,13,52,7.70
2018,01,27,13,53,7.70
2018,01,27,13,54,7.70
2018,01,27,13,55,7.70
2018,01,27,13,56,7.70
2018,01,27,13,57,7.70
2018,01,27,13,58,7.70
2018,01,27,13,59,7.70
2018,01,27,14,00,7.70
2018,01,27,14,01,7.70
2018,01,27,14,02,7.70
2018,01,27,14,03,7.70
2018,01,27,14,04,7.80
2018,01,27,14,05,7.80
2018,01,27,14,06,7.80
2018,01,27,14,07,7.80
2018,01,27,14,08,7.80
2018,01,27,14,09,7.90
2018,01,27,14,10,7.90
2018,01,27,14,11,7.90
2018,01,27,14,12,8.00
2018,01,27,14,13,8.00
2018,01,27,14,14,8.00
2018,01,27,14,15,8.10
2018,01,27,14,16,8.10
2018,01,27,14,17,8.10
2018,01,27,14,18,8.10
2018,01,27,14,19,8.10
2018,01,27,14,20,8.20
2018,01,27,14,21,8.20
2018,01,27,14,22,8.20
2018,01,27,14,23,8.20
2018,01,27,14,24,8.30
2018,01,27,14,25,8.30
2018,01,27,14,26,8.30
2018,01,27,14,27,8.30
2018,01,27,14,28,8.40
2018,01,27,14,29,8.40
2018,01,27,14,30,8.40
2018,01,27,14,31,8.30
2018,01,27,14,32,8.30
2018,01,27,14,33,8.30
2018,01,27,14,34,8.30
2018,01,27,14,35,8.20
2018,01,27,14,36,8.20
2018,01,27,14,37,8.10
2018,01,27,14,38,8.10
2018,01,27,14,39,8.10
2018,01,27,14,40,8.10
2018,01,27,14,41,8.00
2018,01,27,14,42,8.00
2018,01,27,14,43,7.90
2018,01,27,14,44,7.90
2018,01,27,14,45,7.90
2018,01,27,14,46,7.90
2018,01,27,14,47,7.90
2018,01,27,14,48,7.90
2018,01,27,14,49,7.80
2018,01,27,14,50,7.80
2018,01,27,14,51,7.80
2018,01,27,14,52,7.80
2018,01,27,14,53,7.80
2018,01,27,14,54,7.80
2018,01,27,14,55,7.80
2018,01,27,14,56,7.80
2018,01,27,14,57,7.80
2018,01,27,14,58,7.80
2018,01,27,14,59,7.80
2018,01,27,15,00,7.80
2018,01,27,15,01,7.80
2018,01,27,15,02,7.80
2018,01,27,15,03,7.80
2018,01,27,15,04,7.80
2018,01,27,15,05,7.80
2018,01,27,15,06,7.80
2018,01,27,15,07,7.80
2018,01,27,15,08,7.80
2018,01,27,15,09,7.80
2018,01,27,15,10,7.80
2018,01,27,15,11,7.90
2018,01,27,15,12,7.90
2018,01,27,15,13,7.90
2018,01,27,15,14,7.90
2018,01,27,15,15,7.90
2018,01,27,15,16,7.90
2018,01,27,15,17,7.90
2018,01,27,15,18,7.90
2018,01,27,15,19,7.90
2018,01,27,15,20,7.90
2018,01,27,15,21,8.00
2018,01,27,15,22,8.00
2018,01,27,15,23,8.00
2018,01,27,15,24,8.00
2018,01,27,15,25,8.00
2018,01,27,15,26,8.00
2018,01,27,15,27,8.10
2018,01,27,15,28,8.10
2018,01,27,15,29,8.10
2018,01,27,15,30,8.10
2018,01,27,15,31,8.10
2018,01,27,15,32,8.00
2018,01,27,15,33,8.00
2018,01,27,15,34,8.00
2018,01,27,15,35,8.00
2018,01,27,15,36,8.00
2018,01,27,15,37,8.00
2018,01,27,15,38,8.00
2018,01,27,15,39,8.00
2018,01,27,15,40,8.00
2018,01,27,15,41,8.00
2018,01,27,15,42,8.00
2018,01,27,15,43,8.00
2018,01,27,15,44,8.00
2018,01,27,15,45,8.00
2018,01,27,15,46,8.00
2018,01,27,15,47,8.00
2018,01,27,15,48,8.00
2018,01,27,15,49,8.00
2018,01,27,15,50,8.00
2018,01,27,15,51,8.00
2018,01,27,15,52,8.00
2018,01,27,15,53,8.00
2018,01,27,15,54,8.00
2018,01,27,15,55,8.10
2018,01,27,15,56,8.10
2018,01,27,15,57,8.10
2018,01,27,15,58,8.10
2018,01,27,15,59,8.10
2018,01,27,16,00,8.10
2018,01,27,16,01,8.10
2018,01,27,16,02,8.10
2018,01,27,16,03,8.10
2018,01,27,16,04,8.10
2018,01,27,16,05,8.10
2018,01,27,16,06,8.10
2018,01,27,16,07,8.10
2018,01,27,16,08,8.00
2018,01,27,16,09,8.00
2018,01,27,16,10,8.00
2018,01,27,16,11,8.00
2018,01,27,16,12,8.00
2018,01,27,16,13,8.00
2018,01,27,16,14,7.90
2018,01,27,16,15,7.90
2018,01,27,16,16,7.90
2018,01,27,16,17,7.90
2018,01,27,16,18,7.90
2018,01,27,16,19,7.90
2018,01,27,16,20,7.90
2018,01,27,16,21,7.80
2018,01,27,16,22,7.80
2018,01,27,16,23,7.80
2018,01,27,16,24,7.80
2018,01,27,16,25,7.80
2018,01,27,16,26,7.80
2018,01,27,16,27,7.70
2018,01,27,16,28,7.70
2018,01,27,16,29,7.70
2018,01,27,16,30,7.70
2018,01,27,16,31,7.70
2018,01,27,16,32,7.70
2018,01,27,16,33,7.70
2018,01,27,16,34,7.70
2018,01,27,16,35,7.60
2018,01,27,16,36,7.60
2018,01,27,16,37,7.60
2018,01,27,16,38,7.60
2018,01,27,16,39,7.60
2018,01,27,16,40,7.60
2018,01,27,16,41,7.50
2018,01,27,16,42,7.50
2018,01,27,16,43,7.50
2018,01,27,16,44,7.40
2018,01,27,16,45,7.40
2018,01,27,16,46,7.40
2018,01,27,16,47,7.40
2018,01,27,16,48,7.30
2018,01,27,16,49,7.30
2018,01,27,16,50,7.30
2018,01,27,16,51,7.30
2018,01,27,16,52,7.30
2018,01,27,16,53,7.20
2018,01,27,16,54,7.20
2018,01,27,16,55,7.20
2018,01,27,16,56,7.20
2018,01,27,16,57,7.20
2018,01,27,16,58,7.20
2018,01,27,16,59,7.20
2018,01,27,17,00,7.20
2018,01,27,17,01,7.20
2018,01,27,17,02,7.20
2018,01,27,17,03,7.20
2018,01,27,17,04,7.20
2018,01,27,17,05,7.20
2018,01,27,17,06,7.20
2018,01,27,17,07,7.20
2018,01,27,17,08,7.10
2018,01,27,17,09,7.20
2018,01,27,17,10,7.10
2018,01,27,17,11,7.10
2018,01,27,17,12,7.10
2018,01,27,17,13,7.10
2018,01,27,17,14,7.10
2018,01,27,17,15,7.10
2018,01,27,17,16,7.10
2018,01,27,17,17,7.10
2018,01,27,17,18,7.10
2018,01,27,17,19,7.10
2018,01,27,17,20,7.00
2018,01,27,17,21,7.00
2018,01,27,17,22,7.00
2018,01,27,17,23,7.00
2018,01,27,17,24,6.90
2018,01,27,17,25,6.90
2018,01,27,17,26,6.90
2018,01,27,17,27,6.90
2018,01,27,17,28,6.90
2018,01,27,17,29,6.90
2018,01,27,17,30,6.90
2018,01,27,17,31,6.90
2018,01,27,17,32,6.80
2018,01,27,17,33,6.80
2018,01,27,17,34,6.80
2018,01,27,17,35,6.80
2018,01,27,17,36,6.90
2018,01,27,17,37,6.90
2018,01,27,17,38,6.90
2018,01,27,17,39,6.90
2018,01,27,17,40,6.80
2018,01,27,17,41,6.80
2018,01,27,17,42,6.80
2018,01,27,17,43,6.80
2018,01,27,17,44,6.80
2018,01,27,17,45,6.80
2018,01,27,17,46,6.80
2018,01,27,17,47,6.80
2018,01,27,17,48,6.80
2018,01,27,17,49,6.70
2018,01,27,17,50,6.70
2018,01,27,17,51,6.70
2018,01,27,17,52,6.70
2018,01,27,17,53,6.70
2018,01,27,17,54,6.70
2018,01,27,17,55,6.70
2018,01,27,17,56,6.70
2018,01,27,17,57,6.70
2018,01,27,17,58,6.70
2018,01,27,17,59,6.60
2018,01,27,18,00,6.60
2018,01,27,18,01,6.60
2018,01,27,18,02,6.60
2018,01,27,18,03,6.60
2018,01,27,18,04,6.60
2018,01,27,18,05,6.60
2018,01,27,18,06,6.60
2018,01,27,18,07,6.60
2018,01,27,18,08,6.60
2018,01,27,18,09,6.60
2018,01,27,18,10,6.60
2018,01,27,18,11,6.60
2018,01,27,18,12,6.50
2018,01,27,18,13,6.50
2018,01,27,18,14,6.50
2018,01,27,18,15,6.50
2018,01,27,18,16,6.50
2018,01,27,18,17,6.50
2018,01,27,18,18,6.50
2018,01,27,18,19,6.50
2018,01,27,18,20,6.50
2018,01,27,18,21,6.50
2018,01,27,18,22,6.50
2018,01,27,18,23,6.50
2018,01,27,18,24,6.50
2018,01,27,18,25,6.50
2018,01,27,18,26,6.50
2018,01,27,18,27,6.50
2018,01,27,18,28,6.50
2018,01,27,18,29,6.50
2018,01,27,18,30,6.50
2018,01,27,18,31,6.40
2018,01,27,18,32,6.40
2018,01,27,18,33,6.40
2018,01,27,18,34,6.40
2018,01,27,18,35,6.40
2018,01,27,18,36,6.40
2018,01,27,18,37,6.40
2018,01,27,18,38,6.40
2018,01,27,18,39,6.40
2018,01,27,18,40,6.40
2018,01,27,18,41,6.40
2018,01,27,18,42,6.40
2018,01,27,18,43,6.40
2018,01,27,18,44,6.40
2018,01,27,18,45,6.40
2018,01,27,18,46,6.40
2018,01,27,18,47,6.30
2018,01,27,18,48,6.30
2018,01,27,18,49,6.30
2018,01,27,18,50,6.30
2018,01,27,18,51,6.30
2018,01,27,18,52,6.30
2018,01,27,18,53,6.30
2018,01,27,18,54,6.30
2018,01,27,18,55,6.30
2018,01,27,18,56,6.30
2018,01,27,18,57,6.30
2018,01,27,18,58,6.20
2018,01,27,18,59,6.20
2018,01,27,19,00,6.20
2018,01,27,19,01,6.20
2018,01,27,19,02,6.20
2018,01,27,19,03,6.20
2018,01,27,19,04,6.20
2018,01,27,19,05,6.10
2018,01,27,19,06,6.10
2018,01,27,19,07,6.10
2018,01,27,19,08,6.10
2018,01,27,19,09,6.10
2018,01,27,19,10,6.10
2018,01,27,19,11,6.00
2018,01,27,19,12,6.00
2018,01,27,19,13,6.00
2018,01,27,19,14,5.90
2018,01,27,19,15,5.90
2018,01,27,19,16,5.90
2018,01,27,19,17,5.90
2018,01,27,19,18,5.80
2018,01,27,19,19,5.80
2018,01,27,19,20,5.80
2018,01,27,19,21,5.80
2018,01,27,19,22,5.70
2018,01,27,19,23,5.70
2018,01,27,19,24,5.70
2018,01,27,19,25,5.70
2018,01,27,19,26,5.70
2018,01,27,19,27,5.70
2018,01,27,19,28,5.60
2018,01,27,19,29,5.60
2018,01,27,19,30,5.60
2018,01,27,19,31,5.60
2018,01,27,19,32,5.60
2018,01,27,19,33,5.60
2018,01,27,19,34,5.60
2018,01,27,19,35,5.60
2018,01,27,19,36,5.60
2018,01,27,19,37,5.60
2018,01,27,19,38,5.60
2018,01,27,19,39,5.70
2018,01,27,19,40,5.70
2018,01,27,19,41,5.70
2018,01,27,19,42,5.70
2018,01,27,19,43,5.70
2018,01,27,19,44,5.70
2018,01,27,19,45,5.80
2018,01,27,19,46,5.80
2018,01,27,19,47,5.80
2018,01,27,19,48,5.80
2018,01,27,19,49,5.80
2018,01,27,19,50,5.90
2018,01,27,19,51,5.90
2018,01,27,19,52,5.90
2018,01,27,19,53,5.90
2018,01,27,19,54,5.90
2018,01,27,19,55,5.90
2018,01,27,19,56,5.90
2018,01,27,19,57,5.90
2018,01,27,19,58,5.90
2018,01,27,19,59,5.90
2018,01,27,20,00,5.90
2018,01,27,20,01,5.90
2018,01,27,20,02,5.90
2018,01,27,20,03,5.90
2018,01,27,20,04,5.90
2018,01,27,20,05,5.90
2018,01,27,20,06,5.90
2018,01,27,20,07,5.90
2018,01,27,20,08,5.90
2018,01,27,20,09,5.90
2018,01,27,20,10,5.90
2018,01,27,20,11,5.90
2018,01,27,20,12,5.90
2018,01,27,20,13,5.90
2018,01,27,20,14,5.90
2018,01,27,20,15,5.90
2018,01,27,20,16,5.90
2018,01,27,20,17,5.90
2018,01,27,20,18,5.90
2018,01,27,20,19,5.90
2018,01,27,20,20,5.90
2018,01,27,20,21,5.90
2018,01,27,20,22,5.90
2018,01,27,20,23,5.90
2018,01,27,20,24,5.90
2018,01,27,20,25,5.90
2018,01,27,20,26,5.90
2018,01,27,20,27,5.90
2018,01,27,20,28,5.90
2018,01,27,20,29,5.90
2018,01,27,20,30,5.90
2018,01,27,20,31,5.90
2018,01,27,20,32,5.80
2018,01,27,20,33,5.80
2018,01,27,20,34,5.80
2018,01,27,20,35,5.80
2018,01,27,20,36,5.80
2018,01,27,20,37,5.80
2018,01,27,20,38,5.70
2018,01,27,20,39,5.70
2018,01,27,20,40,5.70
2018,01,27,20,41,5.70
2018,01,27,20,42,5.70
2018,01,27,20,43,5.70
2018,01,27,20,44,5.70
2018,01,27,20,45,5.70
2018,01,27,20,46,5.70
2018,01,27,20,47,5.70
2018,01,27,20,48,5.70
2018,01,27,20,49,5.70
2018,01,27,20,50,5.70
2018,01,27,20,51,5.70
2018,01,27,20,52,5.70
2018,01,27,20,53,5.80
2018,01,27,20,54,5.80
2018,01,27,20,55,5.80
2018,01,27,20,56,5.80
2018,01,27,20,57,5.80
2018,01,27,20,58,5.80
2018,01,27,20,59,5.80
2018,01,27,21,00,5.80
2018,01,27,21,01,5.70
2018,01,27,21,02,5.70
2018,01,27,21,03,5.70
2018,01,27,21,04,5.70
2018,01,27,21,05,5.70
2018,01,27,21,06,5.70
2018,01,27,21,07,5.80
2018,01,27,21,08,5.80
2018,01,27,21,09,5.80
2018,01,27,21,10,5.80
2018,01,27,21,11,5.80
2018,01,27,21,12,5.90
2018,01,27,21,13,5.90
2018,01,27,21,14,5.90
2018,01,27,21,15,5.90
2018,01,27,21,16,5.90
2018,01,27,21,17,5.90
2018,01,27,21,18,6.00
2018,01,27,21,19,6.00
2018,01,27,21,20,6.00
2018,01,27,21,21,6.00
2018,01,27,21,22,6.10
2018,01,27,21,23,6.10
2018,01,27,21,24,6.10
2018,01,27,21,25,6.10
2018,01,27,21,26,6.10
2018,01,27,21,27,6.10
2018,01,27,21,28,6.10
2018,01,27,21,29,6.10
2018,01,27,21,30,6.10